SV2RIM-2 Weather Reports


time (UTC)temp
C
wind
direction
speed
KPH
gust
KPH
rain 1hr
cm
rain 24hr
cm
rain mn
cm
humidity
%
barometer
mb
20240225222537 11 305 1.6 3.2 0.03 0.91 0.03 82 1010.7
20240225221517 11 342 1.6 4.8 0.00 0.89 0.00 82 1010.8
20240225220518 11 322 0.0 1.6 0.03 0.89 0.00 82 1010.8
20240225215537 11 240 0.0 0.0 0.03 0.89 0.89 82 1010.8
20240225214537 10 334 0.0 1.6 0.03 0.89 0.89 82 1010.8
20240225213517 10 322 1.6 3.2 0.03 0.89 0.89 82 1010.9
20240225212537 10 291 0.0 1.6 0.03 0.89 0.89 82 1010.9
20240225211516 10 225 0.0 0.0 0.03 0.89 0.89 82 1011.1
20240225210537 10 328 1.6 3.2 0.03 0.86 0.86 82 1011.2
20240225205517 10 341 1.6 4.8 0.03 0.86 0.86 82 1011.2
20240225204517 10 356 3.2 4.8 0.03 0.86 0.86 82 1011.4
20240225203557 10 354 3.2 4.8 0.18 0.86 0.86 81 1011.6
20240225202517 10 325 1.6 3.2 0.23 0.86 0.86 81 1011.6
20240225201517 10 307 0.0 1.6 0.23 0.86 0.86 81 1011.7
20240225200536 10 322 0.0 1.6 0.20 0.84 0.84 81 1011.8
20240225195517 10 347 3.2 6.4 0.20 0.84 0.84 82 1011.8
20240225194517 10 344 3.2 8.0 0.23 0.84 0.84 82 1011.8
20240225193517 10 278 1.6 3.2 0.08 0.71 0.71 81 1011.9
20240225192516 10 346 0.0 1.6 0.20 0.64 0.64 81 1012.0
20240225191537 10 272 0.0 1.6 0.41 0.64 0.64 81 1012.0
20240225190517 10 311 1.6 3.2 0.41 0.64 0.64 81 1012.1
20240225185557 10 253 0.0 3.2 0.46 0.64 0.64 81 1011.9
20240225184517 10 330 1.6 3.2 0.43 0.61 0.61 80 1011.9
20240225183537 10 225 1.6 3.2 0.43 0.61 0.61 80 1012.2
20240225182537 11 196 0.0 3.2 0.25 0.46 0.46 79 1012.2
20240225181517 11 242 0.0 1.6 0.03 0.23 0.23 79 1012.2
20240225180517 11 334 1.6 3.2 0.03 0.23 0.23 78 1012.3
20240225175517 11 231 0.0 1.6 0.00 0.20 0.20 78 1012.3
20240225174537 11 323 1.6 4.8 0.00 0.20 0.20 78 1012.3
20240225173517 11 313 0.0 1.6 0.00 0.20 0.20 78 1012.4
20240225172517 11 225 0.0 1.6 0.00 0.20 0.20 78 1012.5
20240225171517 11 225 0.0 1.6 0.00 0.20 0.20 78 1012.5
20240225170517 11 225 0.0 0.0 0.00 0.20 0.20 78 1012.5
20240225165517 11 329 0.0 1.6 0.00 0.20 0.20 78 1012.5
20240225164517 11 201 1.6 3.2 0.00 0.20 0.20 78 1012.6
20240225163517 11 217 0.0 1.6 0.00 0.20 0.20 79 1012.5
20240225162537 11 313 0.0 1.6 0.00 0.20 0.20 78 1012.5
20240225161517 11 202 0.0 3.2 0.00 0.20 0.20 78 1012.4
20240225160518 11 0.0 0.0 0.00 0.20 0.20 79 1012.5
20240225155517 11 225 0.0 1.6 0.00 0.20 0.20 79 1012.6
20240225154517 12 225 0.0 1.6 0.00 0.20 0.20 79 1012.7
20240225153517 12 211 0.0 1.6 0.00 0.20 0.20 78 1012.8
20240225152518 12 196 1.6 1.6 0.00 0.20 0.20 78 1012.8
20240225151517 12 208 0.0 1.6 0.00 0.20 0.20 79 1013.0
20240225150517 12 214 0.0 1.6 0.00 0.20 0.20 78 1013.0
20240225145517 12 193 1.6 3.2 0.00 0.20 0.20 78 1013.1
20240225144517 12 223 0.0 1.6 0.00 0.20 0.20 79 1013.1
20240225143517 12 229 1.6 3.2 0.00 0.20 0.20 80 1013.2
20240225142518 13 205 1.6 1.6 0.00 0.20 0.20 78 1013.3
20240225141517 12 212 0.0 1.6 0.00 0.20 0.20 79 1013.4
20240225140517 12 340 0.0 1.6 0.00 0.20 0.20 81 1013.5
20240225135517 13 286 1.6 3.2 0.00 0.20 0.20 79 1013.5
20240225134517 13 263 0.0 1.6 0.00 0.23 0.20 79 1013.7
20240225133517 13 330 0.0 1.6 0.00 0.23 0.20 78 1013.8
20240225132517 12 252 0.0 1.6 0.00 0.23 0.20 80 1014.0
20240225131517 13 151 0.0 1.6 0.00 0.23 0.20 79 1014.2
20240225130517 12 226 0.0 1.6 0.00 0.23 0.20 80 1014.5
20240225125517 12 221 0.0 1.6 0.00 0.23 0.20 80 1014.6
20240225124537 13 228 0.0 1.6 0.00 0.23 0.20 80 1014.7
20240225123537 13 295 0.0 1.6 0.00 0.23 0.20 79 1014.9
20240225122518 13 274 0.0 1.6 0.00 0.23 0.20 78 1015.0
20240225121517 13 229 0.0 1.6 0.00 0.25 0.20 78 1015.1
20240225120517 13 280 0.0 1.6 0.00 0.25 0.20 79 1015.2
20240225115517 13 310 0.0 1.6 0.00 0.25 0.20 79 1015.3
20240225114517 13 268 0.0 1.6 0.00 0.25 0.20 78 1015.4
20240225113516 13 312 0.0 1.6 0.00 0.25 0.20 78 1015.5
20240225112518 13 244 0.0 0.0 0.00 0.25 0.20 78 1015.6
20240225111517 12 252 0.0 0.0 0.00 0.25 0.20 79 1015.7
20240225110517 13 265 0.0 1.6 0.00 0.25 0.20 79 1015.8
20240225105516 13 237 0.0 1.6 0.00 0.25 0.20 80 1015.8
20240225104517 14 248 0.0 1.6 0.00 0.25 0.20 76 1015.9
20240225103517 14 218 0.0 1.6 0.00 0.25 0.20 74 1016.0
20240225102517 13 255 0.0 1.6 0.00 0.25 0.20 77 1016.0
20240225101517 13 280 0.0 1.6 0.00 0.25 0.20 76 1016.1
20240225100537 12 209 0.0 1.6 0.00 0.25 0.20 78 1016.3
20240225095537 12 212 0.0 1.6 0.00 0.25 0.20 78 1016.3
20240225094517 12 252 0.0 0.0 0.00 0.25 0.20 78 1016.4
20240225093517 13 234 0.0 1.6 0.00 0.25 0.20 77 1016.5
20240225092537 13 259 0.0 1.6 0.00 0.25 0.20 76 1016.7
20240225091517 13 273 0.0 1.6 0.00 0.25 0.20 75 1016.7
20240225090518 12 333 1.6 3.2 0.00 0.25 0.20 76 1016.7
20240225085517 12 347 1.6 3.2 0.00 0.25 0.20 75 1016.8
20240225084516 12 329 3.2 4.8 0.03 0.25 0.20 76 1016.9
20240225083557 12 309 1.6 4.8 0.03 0.36 0.20 76 1016.8
20240225082517 12 288 1.6 4.8 0.03 0.36 0.20 76 1016.8
20240225081537 12 298 1.6 4.8 0.03 0.36 0.20 75 1016.9
20240225080518 12 314 1.6 3.2 0.03 0.36 0.20 74 1017.0
20240225075517 12 340 1.6 4.8 0.03 0.36 0.20 75 1017.1
20240225074517 11 344 3.2 8.0 0.00 0.33 0.18 75 1017.0
20240225073517 11 344 3.2 6.4 0.00 0.33 0.18 75 1017.0
20240225072517 11 319 3.2 4.8 0.00 0.33 0.18 75 1017.0
20240225071537 11 325 3.2 6.4 0.00 0.33 0.18 75 1017.0
20240225070517 10 325 3.2 6.4 0.00 0.33 0.18 75 1017.2
20240225065518 10 320 3.2 6.4 0.00 0.33 0.18 74 1017.2
20240225064517 10 328 3.2 8.0 0.00 0.33 0.18 73 1017.2
20240225063517 10 333 3.2 6.4 0.00 0.33 0.18 72 1017.2
20240225062517 10 239 1.6 1.6 0.00 0.33 0.18 69 1017.3
20240225054017 10 318 3.2 8.0 0.18 0.33 0.18 74 1017.1
20240225053017 10 328 3.2 6.4 0.18 0.33 0.18 75 1017.1
20240225052017 10 337 4.8 9.7 0.10 0.28 0.10 75 1017.1
20240225051017 10 351 3.2 6.4 0.05 0.23 0.05 74 1017.2
20240225050017 10 319 3.2 8.0 0.00 0.18 0.00 74 1017.2
20240225045017 10 316 4.8 9.7 0.00 0.18 0.00 73 1017.2
20240225044037 10 320 4.8 11.3 0.00 0.18 0.00 73 1017.1
20240225043017 10 319 3.2 11.3 0.00 0.18 0.00 73 1017.1
20240225042016 10 306 4.8 9.7 0.00 0.18 0.00 73 1017.2
20240225041017 10 333 3.2 9.7 0.00 0.18 0.00 71 1017.1
20240225040017 10 333 3.2 6.4 0.00 0.18 0.00 73 1017.2
20240225035038 10 333 1.6 4.8 0.00 0.18 0.00 73 1017.3
20240225034017 10 326 1.6 4.8 0.00 0.18 0.00 73 1017.3
20240225033037 10 347 3.2 6.4 0.00 0.18 0.00 73 1017.2
20240225032017 10 351 4.8 9.7 0.00 0.18 0.00 72 1017.3
20240225031017 10 242 0.0 1.6 0.00 0.18 0.00 72 1017.4
20240225030017 10 321 1.6 4.8 0.00 0.18 0.00 72 1017.4
20240225025017 10 345 3.2 4.8 0.00 0.18 0.00 72 1017.3
20240225024017 10 347 3.2 8.0 0.00 0.18 0.00 70 1017.3
20240225023017 10 327 3.2 4.8 0.00 0.18 0.00 70 1017.3
20240225022017 10 330 3.2 6.4 0.00 0.18 0.00 71 1017.4
20240225021038 10 315 3.2 4.8 0.00 0.18 0.00 70 1017.5
20240225020017 10 341 3.2 8.0 0.00 0.18 0.00 70 1017.4
20240225015037 10 346 4.8 9.7 0.00 0.18 0.00 71 1017.5
20240225014017 10 316 3.2 6.4 0.00 0.18 0.00 71 1017.6
20240225013017 10 311 1.6 6.4 0.00 0.18 0.00 71 1017.7
20240225012017 10 353 3.2 6.4 0.00 0.18 0.00 71 1017.7
20240225011017 10 303 1.6 4.8 0.00 0.18 0.00 71 1017.7
20240225010017 11 349 3.2 4.8 0.00 0.18 0.00 70 1017.8
20240225005017 11 325 1.6 4.8 0.00 0.18 0.00 69 1017.7
20240225004017 11 340 3.2 6.4 0.00 0.18 0.00 69 1017.6
20240225003017 11 336 3.2 8.0 0.00 0.18 0.00 69 1017.7
20240225002017 11 333 3.2 8.0 0.00 0.18 0.00 69 1017.7
20240225001017 11 313 3.2 6.4 0.00 0.18 0.00 69 1017.7
20240225000017 11 313 3.2 8.0 0.00 0.18 0.00 69 1017.7
20240224235017 11 323 4.8 9.7 0.00 0.18 0.00 69 1017.6
20240224234017 10 323 3.2 11.3 0.00 0.18 0.00 70 1017.6
20240224233017 11 351 3.2 6.4 0.00 0.18 0.00 69 1017.6
20240224232017 11 337 4.8 8.0 0.00 0.18 0.00 69 1017.6
20240224231017 11 337 3.2 6.4 0.00 0.18 0.00 69 1017.6
20240224230017 11 338 3.2 6.4 0.00 0.18 0.00 68 1017.6
20240224225017 11 304 1.6 4.8 0.00 0.18 0.00 67 1017.6
20240224224017 11 321 3.2 6.4 0.00 0.18 0.00 66 1017.5
20240224223017 11 321 3.2 9.7 0.00 0.18 0.00 66 1017.5